Spokane Fairchild, WA
on Monday, February 11, 2013

Monday
Previous Day Next Day
Daily Summary
 ActualAverage (KGEG)Record (KGEG)
Temperature
Mean Temperature °F / °C 32°F / 0°C  
Max Temperature 37°F / 3°C 39°F / 4°C 53°F / 11°C (1992)
Min Temperature 20°F / -7°C 26°F / -3°C -14°F / -25°C (1884)
Degree Days
Heating Degree Days 36 33  
Month to date heating degree days 365  
Since 1 July heating degree days 4298  
Cooling Degree Days 0 0  
Month to date cooling degree days 0  
Year to date cooling degree days 0  
Moisture
Dew Point 27°F / -3°C   
Average Humidity 94    
Maximum Humidity 100    
Minimum Humidity 73    
Precipitation
Precipitation 0.00 in / 0.00 cm 0.05 in / 1.27 cm 0.60 in / 1.52 cm (1897)
Month to date precipitation 0.52  
Year to date precipitation 2.31  
Snow
Snow 0.00 in / 0.00 cm 0.30 in / 0.76 cm 5.50 in / 13.97 cm (1897)
Month to date snowfall 3.0  
Since 1 July snowfall 36.5  
Snow Depth in / cm   
Wind
Wind Speed 3 mph / 5 km/h   
Max Wind Speed 9 mph / 14 km/h   
Max Gust Speed mph / km/h   
Visibility 8 miles / 13 kilometers   
Events Snow   

Key: T is trace of precipitation, MM is missing value
Source: NWS Daily Summary
Time(PST)TemperatureDew PointHumidity Pressure Visibility Wind DirectionWind SpeedGust SpeedPrecipitationEvents Conditions
12:38 AM 23.0°F / -5.0°C 23.0°F / -5.0°C 100% 30.16 in / 1021.2 hPa 10.0 miles / 16.1 kilometers NNE 1.2 mph / 1.9 km/h - N/A   Clear
12:54 AM 23.0°F / -5.0°C 23.0°F / -5.0°C 100% 30.15 in / 1020.9 hPa 8.0 miles / 12.9 kilometers NE 3.5 mph / 5.6 km/h - N/A   Clear
12:58 AM 23.2°F / -4.9°C 22.8°F / -5.1°C 99% 30.24 in / 1023.9 hPa 9.0 miles / 14.5 kilometers NE 3.5 mph / 5.6 km/h - 0.00 in / 0.0 cm   Clear
1:58 AM 23.9°F / -4.5°C 23.4°F / -4.8°C 98% 30.25 in / 1024.2 hPa 10.0 miles / 16.1 kilometers NE 4.6 mph / 7.4 km/h - N/A   Clear
2:58 AM 24.1°F / -4.4°C 23.5°F / -4.7°C 98% 30.26 in / 1024.5 hPa 10.0 miles / 16.1 kilometers NNE 4.6 mph / 7.4 km/h - N/A   Clear
3:55 AM 23.0°F / -5.0°C 21.2°F / -6.0°C 93% 30.16 in / 1021.2 hPa 10.0 miles / 16.1 kilometers NE 1.2 mph / 1.9 km/h - N/A   Mostly Cloudy
3:58 AM 23.0°F / -5.0°C 21.2°F / -6.0°C 93% 30.25 in / 1024.3 hPa 10.0 miles / 16.1 kilometers NE 1.2 mph / 1.9 km/h - N/A   Mostly Cloudy
4:05 AM 24.8°F / -4.0°C 24.8°F / -4.0°C 100% 30.16 in / 1021.2 hPa 10.0 miles / 16.1 kilometers Calm Calm - N/A   Mostly Cloudy
4:55 AM 21.2°F / -6.0°C 19.4°F / -7.0°C 93% 30.14 in / 1020.5 hPa 10.0 miles / 16.1 kilometers East 4.6 mph / 7.4 km/h - N/A   Scattered Clouds
4:58 AM 20.5°F / -6.4°C 19.4°F / -7.0°C 96% 30.24 in / 1023.8 hPa 10.0 miles / 16.1 kilometers East 4.6 mph / 7.4 km/h - 0.00 in / 0.0 cm   Scattered Clouds
5:02 AM 21.2°F / -6.0°C 21.2°F / -6.0°C 100% 30.15 in / 1020.9 hPa 10.0 miles / 16.1 kilometers East 3.5 mph / 5.6 km/h - N/A   Partly Cloudy
5:07 AM 23.0°F / -5.0°C 23.0°F / -5.0°C 100% 30.15 in / 1020.9 hPa 8.0 miles / 12.9 kilometers ENE 4.6 mph / 7.4 km/h - N/A Snow Light Snow
5:11 AM 23.0°F / -5.0°C 23.0°F / -5.0°C 100% 30.15 in / 1020.9 hPa 7.0 miles / 11.3 kilometers ENE 4.6 mph / 7.4 km/h - N/A   Clear
5:16 AM 23.0°F / -5.0°C 23.0°F / -5.0°C 100% 30.14 in / 1020.5 hPa 4.0 miles / 6.4 kilometers East 4.6 mph / 7.4 km/h - N/A Snow Light Snow
5:21 AM 23.0°F / -5.0°C 23.0°F / -5.0°C 100% 30.14 in / 1020.5 hPa 1.8 miles / 2.8 kilometers East 3.5 mph / 5.6 km/h - N/A Snow Light Snow
5:26 AM 23.0°F / -5.0°C 23.0°F / -5.0°C 100% 30.14 in / 1020.5 hPa 1.2 miles / 2.0 kilometers ENE 2.3 mph / 3.7 km/h - N/A Snow Light Snow
5:30 AM 23.0°F / -5.0°C 23.0°F / -5.0°C 100% 30.15 in / 1020.9 hPa 2.0 miles / 3.2 kilometers East 3.5 mph / 5.6 km/h - N/A   Clear
5:35 AM 23.0°F / -5.0°C 23.0°F / -5.0°C 100% 30.14 in / 1020.5 hPa 5.0 miles / 8.0 kilometers ENE 3.5 mph / 5.6 km/h - N/A   Clear
5:40 AM 23.0°F / -5.0°C 23.0°F / -5.0°C 100% 30.14 in / 1020.5 hPa 2.0 miles / 3.2 kilometers ENE 3.5 mph / 5.6 km/h - N/A   Clear
5:43 AM 23.0°F / -5.0°C 23.0°F / -5.0°C 100% 30.14 in / 1020.5 hPa 1.5 miles / 2.4 kilometers ENE 3.5 mph / 5.6 km/h - N/A Snow Light Snow
5:48 AM 23.0°F / -5.0°C 23.0°F / -5.0°C 100% 30.14 in / 1020.5 hPa 1.2 miles / 2.0 kilometers ENE 3.5 mph / 5.6 km/h - N/A Snow Light Snow
5:53 AM 23.0°F / -5.0°C 23.0°F / -5.0°C 100% 30.14 in / 1020.5 hPa 1.0 miles / 1.6 kilometers East 4.6 mph / 7.4 km/h - N/A Snow Light Snow
5:58 AM 23.2°F / -4.9°C 22.5°F / -5.3°C 97% 30.24 in / 1023.8 hPa 1.0 miles / 1.6 kilometers ENE 3.5 mph / 5.6 km/h - 0.00 in / 0.0 cm Snow Light Snow
6:03 AM 23.0°F / -5.0°C 23.0°F / -5.0°C 100% 30.15 in / 1020.9 hPa 1.8 miles / 2.8 kilometers ENE 3.5 mph / 5.6 km/h - N/A Snow Light Snow
6:04 AM 23.0°F / -5.0°C 23.0°F / -5.0°C 100% 30.14 in / 1020.5 hPa 2.0 miles / 3.2 kilometers ENE 3.5 mph / 5.6 km/h - N/A   Clear
6:09 AM 23.0°F / -5.0°C 23.0°F / -5.0°C 100% 30.15 in / 1020.9 hPa 3.0 miles / 4.8 kilometers NE 3.5 mph / 5.6 km/h - N/A   Clear
6:32 AM 23.0°F / -5.0°C 23.0°F / -5.0°C 100% 30.14 in / 1020.5 hPa 10.0 miles / 16.1 kilometers ENE 3.5 mph / 5.6 km/h - N/A   Clear
6:41 AM 23.0°F / -5.0°C 23.0°F / -5.0°C 100% 30.14 in / 1020.5 hPa 10.0 miles / 16.1 kilometers ENE 2.3 mph / 3.7 km/h - N/A   Clear
6:58 AM 23.0°F / -5.0°C 22.3°F / -5.4°C 97% 30.24 in / 1023.8 hPa 10.0 miles / 16.1 kilometers ENE 4.6 mph / 7.4 km/h - 0.00 in / 0.0 cm   Clear
7:27 AM 23.0°F / -5.0°C 23.0°F / -5.0°C 100% 30.16 in / 1021.2 hPa 7.0 miles / 11.3 kilometers NNE 3.5 mph / 5.6 km/h - N/A   Scattered Clouds
7:32 AM 23.0°F / -5.0°C 21.2°F / -6.0°C 93% 30.16 in / 1021.2 hPa 7.0 miles / 11.3 kilometers NNE 3.5 mph / 5.6 km/h - N/A   Mostly Cloudy
7:36 AM 23.0°F / -5.0°C 23.0°F / -5.0°C 100% 30.16 in / 1021.2 hPa 9.0 miles / 14.5 kilometers NNE 3.5 mph / 5.6 km/h - N/A   Mostly Cloudy
7:58 AM 24.6°F / -4.1°C 24.1°F / -4.4°C 98% 30.25 in / 1024.2 hPa 10.0 miles / 16.1 kilometers Calm Calm - 0.00 in / 0.0 cm   Mostly Cloudy
8:03 AM 23.0°F / -5.0°C 21.2°F / -6.0°C 93% 30.15 in / 1020.9 hPa 10.0 miles / 16.1 kilometers Calm Calm - N/A   Scattered Clouds
8:35 AM 28.4°F / -2.0°C 28.4°F / -2.0°C 100% 30.16 in / 1021.2 hPa 10.0 miles / 16.1 kilometers NE 4.6 mph / 7.4 km/h - N/A   Partly Cloudy
8:40 AM 28.4°F / -2.0°C 28.4°F / -2.0°C 100% 30.16 in / 1021.2 hPa 10.0 miles / 16.1 kilometers NE 4.6 mph / 7.4 km/h - N/A   Partly Cloudy
8:42 AM 28.4°F / -2.0°C 28.4°F / -2.0°C 100% 30.16 in / 1021.2 hPa 10.0 miles / 16.1 kilometers NE 4.6 mph / 7.4 km/h - N/A   Partly Cloudy
8:58 AM 28.8°F / -1.8°C 28.6°F / -1.9°C 99% 30.25 in / 1024.3 hPa 10.0 miles / 16.1 kilometers ENE 4.6 mph / 7.4 km/h - 0.00 in / 0.0 cm   Clear
9:54 AM 32.0°F / 0.0°C 32.0°F / 0.0°C 100% 30.17 in / 1021.6 hPa 10.0 miles / 16.1 kilometers ESE 6.9 mph / 11.1 km/h - N/A   Clear
9:58 AM 31.5°F / -0.3°C 30.7°F / -0.7°C 97% 30.25 in / 1024.4 hPa 10.0 miles / 16.1 kilometers ESE 6.9 mph / 11.1 km/h - 0.00 in / 0.0 cm   Clear
10:58 AM 34.2°F / 1.2°C 28.9°F / -1.7°C 81% 30.25 in / 1024.4 hPa 10.0 miles / 16.1 kilometers SSE 6.9 mph / 11.1 km/h - N/A   Clear
11:58 AM 36.3°F / 2.4°C 29.1°F / -1.6°C 75% 30.23 in / 1023.7 hPa 10.0 miles / 16.1 kilometers SSE 4.6 mph / 7.4 km/h - N/A   Partly Cloudy
12:23 PM 35.6°F / 2.0°C 28.4°F / -2.0°C 75% 30.16 in / 1021.2 hPa 10.0 miles / 16.1 kilometers South 4.6 mph / 7.4 km/h - N/A   Overcast
12:58 PM 37.6°F / 3.1°C 29.5°F / -1.4°C 73% 30.23 in / 1023.5 hPa 10.0 miles / 16.1 kilometers South 8.1 mph / 13.0 km/h - N/A   Overcast
1:00 PM 37.4°F / 3.0°C 30.2°F / -1.0°C 75% 30.14 in / 1020.5 hPa 10.0 miles / 16.1 kilometers South 8.1 mph / 13.0 km/h - N/A   Overcast
1:19 PM 37.4°F / 3.0°C 30.2°F / -1.0°C 75% 30.14 in / 1020.5 hPa 10.0 miles / 16.1 kilometers SSW 4.6 mph / 7.4 km/h - N/A   Mostly Cloudy
1:28 PM 37.4°F / 3.0°C 30.2°F / -1.0°C 75% 30.14 in / 1020.5 hPa 10.0 miles / 16.1 kilometers South 9.2 mph / 14.8 km/h - N/A   Mostly Cloudy
1:37 PM 37.4°F / 3.0°C 30.2°F / -1.0°C 75% 30.14 in / 1020.5 hPa 10.0 miles / 16.1 kilometers South 8.1 mph / 13.0 km/h - N/A   Overcast
1:58 PM 37.0°F / 2.8°C 30.4°F / -0.9°C 77% 30.22 in / 1023.2 hPa 10.0 miles / 16.1 kilometers Variable 5.8 mph / 9.3 km/h - 0.00 in / 0.0 cm   Overcast
2:58 PM 34.9°F / 1.6°C 30.6°F / -0.8°C 84% 30.23 in / 1023.7 hPa 10.0 miles / 16.1 kilometers West 5.8 mph / 9.3 km/h - N/A   Overcast
3:58 PM 34.7°F / 1.5°C 30.9°F / -0.6°C 86% 30.23 in / 1023.7 hPa 10.0 miles / 16.1 kilometers West 3.5 mph / 5.6 km/h - N/A   Overcast
4:27 PM 33.8°F / 1.0°C 32.0°F / 0.0°C 93% 30.16 in / 1021.2 hPa 10.0 miles / 16.1 kilometers West 2.3 mph / 3.7 km/h - N/A   Overcast
4:41 PM 33.8°F / 1.0°C 32.0°F / 0.0°C 93% 30.15 in / 1020.9 hPa 10.0 miles / 16.1 kilometers SW 3.5 mph / 5.6 km/h - N/A   Overcast
4:58 PM 34.0°F / 1.1°C 30.6°F / -0.8°C 87% 30.24 in / 1023.9 hPa 10.0 miles / 16.1 kilometers SW 4.6 mph / 7.4 km/h - 0.00 in / 0.0 cm   Overcast
5:35 PM 32.0°F / 0.0°C 30.2°F / -1.0°C 93% 30.16 in / 1021.2 hPa 10.0 miles / 16.1 kilometers Calm Calm - N/A   Overcast
5:43 PM 32.0°F / 0.0°C 30.2°F / -1.0°C 93% 30.16 in / 1021.2 hPa 10.0 miles / 16.1 kilometers Calm Calm - N/A   Overcast
5:58 PM 32.9°F / 0.5°C 29.8°F / -1.2°C 88% 30.25 in / 1024.3 hPa 10.0 miles / 16.1 kilometers South 2.3 mph / 3.7 km/h - 0.00 in / 0.0 cm   Overcast
6:58 PM 32.7°F / 0.4°C 30.4°F / -0.9°C 91% 30.25 in / 1024.3 hPa 10.0 miles / 16.1 kilometers SSE 3.5 mph / 5.6 km/h - N/A   Overcast
7:03 PM 32.0°F / 0.0°C 32.0°F / 0.0°C 100% 30.16 in / 1021.2 hPa 10.0 miles / 16.1 kilometers SSE 4.6 mph / 7.4 km/h - N/A   Overcast
7:12 PM 32.0°F / 0.0°C 32.0°F / 0.0°C 100% 30.16 in / 1021.2 hPa 10.0 miles / 16.1 kilometers South 2.3 mph / 3.7 km/h - N/A   Overcast
7:58 PM 33.1°F / 0.6°C 30.6°F / -0.8°C 90% 30.25 in / 1024.3 hPa 10.0 miles / 16.1 kilometers South 3.5 mph / 5.6 km/h - 0.00 in / 0.0 cm   Overcast
8:08 PM 32.0°F / 0.0°C 32.0°F / 0.0°C 100% 30.16 in / 1021.2 hPa 10.0 miles / 16.1 kilometers SSW 3.5 mph / 5.6 km/h - N/A   Overcast
8:58 PM 32.9°F / 0.5°C 30.6°F / -0.8°C 91% 30.25 in / 1024.4 hPa 10.0 miles / 16.1 kilometers West 2.3 mph / 3.7 km/h - N/A   Overcast
9:12 PM 32.0°F / 0.0°C 32.0°F / 0.0°C 100% 30.17 in / 1021.6 hPa 10.0 miles / 16.1 kilometers WNW 2.3 mph / 3.7 km/h - N/A   Overcast
9:29 PM 32.0°F / 0.0°C 32.0°F / 0.0°C 100% 30.17 in / 1021.6 hPa 10.0 miles / 16.1 kilometers West 1.2 mph / 1.9 km/h - N/A   Overcast
9:58 PM 32.0°F / 0.0°C 32.0°F / 0.0°C 100% 30.24 in / 1023.9 hPa 10.0 miles / 16.1 kilometers North 1.2 mph / 1.9 km/h - 0.00 in / 0.0 cm   Overcast
10:58 PM 32.5°F / 0.3°C 30.4°F / -0.9°C 92% 30.24 in / 1024.0 hPa 10.0 miles / 16.1 kilometers Calm Calm - N/A   Overcast
11:58 PM 32.0°F / -0.0°C 30.7°F / -0.7°C 95% 30.24 in / 1023.9 hPa 10.0 miles / 16.1 kilometers SSE 2.3 mph / 3.7 km/h - N/A   Overcast
Moon Phase
Feb. 11 Feb. 17 Feb. 25 Mar. 04 Mar. 11
Sunrise:07:02 AM (PST) Moon Rise:07:18 AM (PST)2/11
Sunset:05:08 PM (PST) Moon Set:07:23 PM (PST)2/11

Copyright © 2014 The Weather Underground, Inc.